This is the latest recevied weather packets stored in our database for station/object KB9MLJ. If no packets are shown the sender has not sent any weather packets the latest 1 day(s).
| Time | Temp. | Humidity | Pressure | Rain* | Wind** | Luminosity | Snow |
|---|---|---|---|---|---|---|---|
| 1836274571 | 21.11° C | 80% | 1017.2 hPa | 0 mm | 0 m/s | 0 W/m² | - |
| 1836274425 | 20.56° C | 80% | 1017.2 hPa | 0 mm | 0 m/s | 0 W/m² | - |
| 1836274269 | 21.11° C | 80% | 1017.2 hPa | 0 mm | 0 m/s | 0 W/m² | - |
| 1836274123 | 21.11° C | 80% | 1017.2 hPa | 0 mm | 0 m/s | 0 W/m² | - |
| 1836273968 | 20.56° C | 80% | 1017.2 hPa | 0 mm | 0 m/s | 0 W/m² | - |
| 1778031120 | 11.11° C | 53% | 1009.2 hPa | 0 mm | 1.79 m/s, 340° | 0 W/m² | - |
| 1778030816 | 11.67° C | 53% | 1009.2 hPa | 0 mm | 2.24 m/s, 310° | 0 W/m² | - |
| 1778030513 | 11.67° C | 53% | 1009.2 hPa | 0 mm | 1.34 m/s, 301° | 0 W/m² | - |
| 1778030211 | 11.67° C | 52% | 1008.5 hPa | 0 mm | 1.79 m/s, 335° | 0 W/m² | - |
| 1778029907 | 11.67° C | 51% | 1008.8 hPa | 0 mm | 1.34 m/s, 310° | 0 W/m² | - |
| 1778029606 | 11.67° C | 51% | 1008.8 hPa | 0 mm | 1.79 m/s, 320° | 0 W/m² | - |
| 1778029302 | 11.67° C | 51% | 1008.8 hPa | 0 mm | 1.34 m/s, 333° | 0 W/m² | - |
| 1778028999 | 11.67° C | 50% | 1008.8 hPa | 0 mm | 2.24 m/s, 317° | 0 W/m² | - |
| 1778028696 | 11.67° C | 50% | 1008.8 hPa | 0 mm | 2.24 m/s, 339° | 0 W/m² | - |
| 1778028392 | 11.67° C | 51% | 1008.8 hPa | 0 mm | 1.34 m/s, 308° | 0 W/m² | - |
| 1778028090 | 11.67° C | 51% | 1008.8 hPa | 0 mm | 1.34 m/s, 303° | 1 W/m² | - |
| 1778027786 | 11.67° C | 49% | 1009.2 hPa | 0 mm | 1.34 m/s, 336° | 2 W/m² | - |
| 1778027482 | 11.67° C | 49% | 1008.8 hPa | 0 mm | 1.79 m/s, 286° | 3 W/m² | - |
| 1778027178 | 11.67° C | 50% | 1008.8 hPa | 0 mm | 1.34 m/s, 298° | 5 W/m² | - |
| 1778026874 | 11.67° C | 51% | 1008.5 hPa | 0 mm | 2.24 m/s, 322° | 9 W/m² | - |
| 1778026570 | 11.67° C | 52% | 1008.8 hPa | 0 mm | 1.34 m/s, 331° | 6 W/m² | - |
| 1778026268 | 11.67° C | 54% | 1008.8 hPa | 0 mm | 1.34 m/s, 305° | 6 W/m² | - |
| 1778025965 | 11.67° C | 55% | 1008.5 hPa | 0 mm | 1.34 m/s, 321° | 9 W/m² | - |
| 1778025662 | 11.67° C | 54% | 1008.8 hPa | 0 mm | 1.34 m/s, 308° | 10 W/m² | - |
| 1778025360 | 11.67° C | 54% | 1008.8 hPa | 0 mm | 1.34 m/s, 315° | 12 W/m² | - |
* Rain latest hour (hover to see other rain measurements)
** Current wind speed in m/s (hover to see current wind gust speed)